This demonstration page uses our WeatherBlox Daily Observations layout. Learn more.

Left ArrowRight Arrow

41.55636, -103.73856

Hourly Observations for July 17, 2017

Temp ( °F °C ) Dew Point ( °F °C ) Humidity (%) Winds ( mph kmh ) Pressure ( in mb ) Visibility ( mi km ) Precip ( " mm )
12:53 am 00:53 Clear 69 20.6 60 15.6 73 73 E 8 13 29.85 1011 10 16 0.00 0.00
1:53 am 01:53 Clear 68 20 60 15.6 76 76 E 9 15 29.85 1011 10 16 0.00 0.00
2:53 am 02:53 Clear 67 19.4 60 15.6 79 79 E 9 15 29.83 1010 10 16 0.00 0.00
3:53 am 03:53 Clear 66 18.9 60 15.6 81 81 SE 8 13 29.82 1010 10 16 0.00 0.00
4:53 am 04:53 Clear 65 18.3 60 15.6 84 84 undefined N/A 29.82 1010 10 16 0.00 0.00
5:53 am 05:53 Sunny 64 17.8 60 15.6 87 87 E 8 13 29.84 1010 10 16 0.00 0.00
6:53 am 06:53 Sunny 67 19.4 61 16.1 81 81 ESE 6 9 29.84 1011 10 16 0.00 0.00
7:53 am 07:53 Sunny 72 22.2 62 16.7 71 71 ESE 5 7 29.84 1010 10 16 0.00 0.00
8:53 am 08:53 Sunny 76 24.4 62 16.7 62 62 S 5 7 29.84 1011 10 16 0.00 0.00
9:53 am 09:53 Sunny 79 26.1 62 16.7 56 56 Calm 29.84 1011 10 16 0.00 0.00
10:53 am 10:53 Sunny 83 28.3 63 17.2 51 51 VRB 3 6 29.83 1010 10 16 0.00 0.00
11:53 am 11:53 Sunny 89 31.7 61 16.1 39 39 VRB 3 6 29.81 1010 10 16 0.00 0.00
12:53 pm 12:53 Sunny 93 33.9 57 13.9 30 30 VRB 7 11 29.80 1009 10 16 0.00 0.00
1:53 pm 13:53 Sunny 93 33.9 56 13.3 29 29 undefined N/A 29.79 1009 10 16 0.00 0.00
2:53 pm 14:53 Sunny 94 34.4 52 11.1 24 24 VRB 3 6 29.78 1008 10 16 0.00 0.00
3:53 pm 15:53 Sunny 96 35.6 50 10 21 21 S 8 13 29.75 1008 10 16 0.00 0.00
4:53 pm 16:53 Sunny 96 35.6 51 10.6 22 22 NE 12 19 29.75 1008 10 16 0.00 0.00
5:53 pm 17:53 Sunny 96 35.6 50 10 21 21 SE 7 11 29.74 1007 10 16 0.00 0.00
6:53 pm 18:53 Sunny 94 34.4 50 10 22 22 SE 8 13 29.73 1007 10 16 0.00 0.00
7:53 pm 19:53 Sunny 86 30 59 15 40 40 ESE 7 11 29.75 1007 10 16 0.00 0.00
8:33 pm 20:33 Clear 83 28.3 53 11.7 36 36 S 13 20 29.62 1003 10 16 0.00 0.00
8:53 pm 20:53 Mostly Clear 81 27.2 54 12.2 39 39 S 3 6 29.77 1008 10 16 0.00 0.00
9:53 pm 21:53 Partly Cloudy with Light Rain 80 26.7 53 11.7 39 39 SW 13 20 29.78 1008 10 16 0.00 0.03
10:53 pm 22:53 Clear 72 22.2 56 13.3 57 57 NE 5 7 29.79 1009 10 16 0.00 0.03
11:53 pm 23:53 Clear 71 21.7 55 12.8 57 57 NNW 9 15 29.83 1010 10 16 0.00 0.00

Powered by AerisWeather